Regional Weather Roundup
Issued by NWS

Home | Current Version | Previous Version | Text Only | Print | Product List | Glossary On
Versions: 1 2 3 4 5 6 7 8 9 10 11 12 13 14 15 16 17 18 19 20 21 22 23 24 25 26 27 28 29 30 31 32 33 34 35 36 37 38 39 40 41 42 43 44 45 46 47 48 49 50
000
ASUS46 KLOX 230604
RWRCA

SOUTHERN CALIFORNIA WEATHER ROUNDUP
NATIONAL WEATHER SERVICE OXNARD CALIFORNIA
1100 PM PDT SUN OCT 22 2017

NOTE: "FAIR" INDICATES FEW OR NO CLOUDS BELOW 12,000 FEET WITH NO
SIGNIFICANT WEATHER AND/OR OBSTRUCTIONS TO VISIBILITY.

  -  STATIONS PRECEEDED BY AN ASTERISK (*) ARE NOT NWS OR FAA
     STATIONS AND ARE NOT SUBJECT TO NWS AND FAA QUALITY CONTROL.

CAZ041-042-087-230700-
LA AND ORANGE COUNTY COASTAL AREAS


CITY           SKY/WX    TMP DP  RH WIND       PRES   REMARKS
L.A. DOWNTOWN  CLEAR     70  56  61 CALM      30.06S
L.A. AIRPORT   PTCLDY    69  56  62 E5        30.07R
LONG BEACH     CLEAR     68  53  58 NW6       30.06S

CITY           SKY/WX    TMP DP  RH WIND       PRES   REMARKS
FULLERTON      CLEAR     69  43  38 CALM      30.05S
*GETTY CENTER    N/A    N/A N/A N/A VRB17       N/A
HAWTHORNE      CLEAR     68  56  65 CALM      30.07R
*LEO CARRILLO    N/A     87  30  13 NE7         N/A
*LOS ALAMITOS  FAIR      64  49  58 NW3       30.05F
*REDONDO BEACH   N/A     65  52  62 CALM      30.05S
SANTA ANA      CLEAR     70  47  43 CALM      30.05F
STA MONICA APT CLEAR     67  60  78 E3        30.07R
*UCLA            N/A     81  28  15 NW7       30.05R

$$

CAZ547-548-048-230700-
LA COUNTY VALLEYS AND INLAND EMPIRE


CITY           SKY/WX    TMP DP  RH WIND       PRES   REMARKS
BURBANK        CLEAR     71  36  27 CALM      30.09S
VAN NUYS       CLEAR     81  27  14 N12       30.09S

CITY           SKY/WX    TMP DP  RH WIND       PRES   REMARKS
CORONA AIRPORT CLEAR     81  33  17 SE8       30.09F
*CHATSWORTH      N/A     84  36  18 N12       30.05S
CHINO          CLEAR     67  45  45 CALM      30.11R
MARCH AFB      CLEAR     62  30  29 NW8       30.15R
ONTARIO        CLEAR     72  35  25 N9        30.10S
*PASADENA        N/A     73  41  31 CALM        N/A
RIVERSIDE      CLEAR     73  35  25 SE5       30.11S
SAN BERNARDINO FAIR      73  30  20 SE6       30.14S
*SAN RAFAEL HI   N/A     84  26  12 NE2         N/A
*SAUGUS          N/A     75  27  17 N3          N/A
*WHITEMAN AP   NOT AVBL
*WHITTIER HILL   N/A     83  32  16 NE7         N/A
*WOODLAND HILL   N/A     70  32  24 S2          N/A

$$

CAZ054-055-230700-
LA AND SAN BERNARDINO COUNTY MOUNTAINS


CITY           SKY/WX    TMP DP  RH WIND       PRES   REMARKS
*ACTON           N/A     72  30  21 N9          N/A
*BIG BEAR AIRP CLEAR     41  21  45 CALM      30.50S
*BIG PINES       N/A     57  28  33 CALM        N/A
*CHILAO          N/A     68  29  23 NE24G36     N/A
SANDBERG       CLEAR     69  26  20 E20       30.37S
*WARM SPRINGS    N/A     68  24  19 NE22        N/A

$$

CAZ028-029-059-060-099-230700-
ANTELOPE VALLEY AND SURROUNDING AREAS


CITY           SKY/WX    TMP DP  RH WIND       PRES   REMARKS
LANCASTER      CLEAR     54  24  31 W6        30.28S
PALMDALE       CLEAR     60  27  28 CALM      30.29R
*POPPY PARK      N/A     54  26  34 CALM        N/A

CITY           SKY/WX    TMP DP  RH WIND       PRES   REMARKS
29 PALMS       CLEAR     69  23  17 NW7       30.30S
BARSTOW/DAGGET CLEAR     62  26  25 W7        30.25S
BISHOP         CLEAR     43  21  41 NW5       30.43R
CHINA LAKE     CLEAR     60  27  28 SW9       30.28S
EDWARDS AFB    CLEAR     55  19  24 S3        30.25F
MOJAVE         CLEAR     61  32  33 NW8       30.30S
NEEDLES        CLEAR     77  29  17 NW7       30.15S
VICTORVILLE    CLEAR     55  23  28 CALM      30.30S

$$

CAZ039-040-230700-
VENTURA AND SANTA BARBARA COUNTY COAST


CITY           SKY/WX    TMP DP  RH WIND       PRES   REMARKS
CAMARILLO      CLEAR     65  42  43 CALM      30.06F
NWS OXNARD       N/A     65  41  41 CALM      30.05F
OXNARD AIRPORT CLEAR     60  56  86 NW5       30.07S
*POINT MUGU    CLEAR     66  48  52 N9        30.07S
SBA APT/GOLETA CLEAR     57  50  77 CALM      30.07S
*SANTA BARBARA   N/A     65  48  54 CALM      30.15R

$$

CAZ044-045-230700-
VENTURA COUNTY VALLEYS


CITY           SKY/WX    TMP DP  RH WIND       PRES   REMARKS
*SIMI VALLEY     N/A     82  33  17 N5        30.01F
*WESTLAKE VILL   N/A     65  38  36 CALM      30.08S
*OJAI            N/A     56  40  56 CALM      30.04S
*FILLMORE        N/A     76  36  23 NE3       30.11S

$$

CAZ053-230700-
VENTURA COUNTY MOUNTAINS


CITY           SKY/WX    TMP DP  RH WIND       PRES   REMARKS
*LOCKWOOD VLY    N/A     45  23  42 NW2         N/A
*ROSE VALLEY     N/A     45  25  45 NE2         N/A

$$

CAZ034-035-036-230700-
CENTRAL COAST AND SANTA YNEZ VALLEY


CITY           SKY/WX    TMP DP  RH WIND       PRES   REMARKS
SAN LUIS OBISP CLEAR     71  42  35 SW7       30.15S
SANTA MARIA    CLEAR     73  40  30 NE12      30.13S

CITY           SKY/WX    TMP DP  RH WIND       PRES   REMARKS
*CAL POLY SLO    N/A     72  46  40 N10G38      N/A
*LOMPOC        CLEAR     54  46  74 E7        30.13R
*PISMO BEACH     N/A     73  44  36 CALM      30.13F
*SANTA YNEZ    FAIR      61  41  48 NE3       30.15R

$$

CAZ037-038-051-230700-
SAN LUIS OBISPO COUNTY INTERIOR AND CUYAMA VALLEY


CITY           SKY/WX    TMP DP  RH WIND       PRES   REMARKS
*CUYAMA          N/A     49  40  73 CALM      30.28R
PASO ROBLES    CLEAR     58  45  62 E3        30.27R

$$

CAZ032-033-061-230700-
SOUTHERN DESERTS


CITY           SKY/WX    TMP DP  RH WIND       PRES   REMARKS
BLYTHE         CLEAR     70  21  15 NW7       30.09S
IMPERIAL       CLEAR     71  22  15 W7        30.07R
PALM SPRINGS   CLEAR     75  34  22 NW6       30.13S
THERMAL        CLEAR     70  42  36 N7        30.06S

$$

ELSEWHERE ACROSS THE WESTERN UNITED STATES AND MEXICO


CITY           SKY/WX    TMP DP  RH WIND       PRES   REMARKS
DENVER, CO     CLOUDY    60  25  26 N8        30.15S
GRAND CANYON,  MOCLDY    30  10  43 CALM      30.49S
HONOLULU, HI   CLEAR     78  70  76 SE3       30.00R
KAHULUI, MAUI  PTCLDY    77  68  73 S5        30.00R
LAKE TAHOE, CA CLEAR     38  31  76 CALM      30.56R
LAS VEGAS, NV  CLEAR     66  28  24 SW6       30.25S
MAMMOTH LAKES, FAIR      40  13  33 W6        30.61S
MEXICO CITY, M MOCLDY    59  45  58 N6        30.46F
PHOENIX, AZ    CLEAR     74  29  19 E3        30.08S
PORTLAND, OR   MOCLDY    49  48  97 CALM      30.48R
RENO, NV       CLEAR     51  36  56 S3        30.51R
SALT LAKE CITY MOCLDY    53  37  54 W6        30.39R
SAN DIEGO, CA  CLEAR     71  39  31 CALM      30.07S
SAN FRANCISCO, CLEAR     62  51  67 CALM      30.27S
SAN JOSE, CA   CLEAR     61  53  75 E5        30.28R
SEATTLE, WA    CLEAR     52  48  86 S10       30.46R
TIJUANA, MEX   CLEAR     66  39  37 CALM      30.09S

$$

STATION/POSITION TIME  TEMP    WIND        PRES    VSBY  WAVE
                       AIR SEA DIR/SP/G                  HT/PER
                 (UTC) (F)     (DEG/KT/KT) (MB)    (MI)  (FT/S)
POINT ARGUELLO B NOT AVBL
WEST SANTA BARBA 0550   59 56  330/  4/  8 1018.3R         7/13
POINT CONCEPTION NOT AVBL
EAST SANTA BARBA 0550   63 63  260/  4/  6 1019.1R         5/13
SANTA MONICA BAY 0550      68  340/ 10/ 12 1017.2F         3/17



USA.gov is the U.S. government's official web portal to all federal, state and local government web resources and services.